Weather in Adana

Turkey     37°00′10″N   35°19′10″E
temp.,
°C
wind,
m/s
gust,
m/s
humid.,
%
clouds,
%
prec.,
mm/h
press.,
hPa
HPBL,
m
22 april, thu
thu2200:00+13ene22880 0.0 101814
03:00+12ne22900 0.0 101812
06:00+12ne22900 0.0 101914
09:00+18ene11650 0.0 1019649
12:00+22ssw21400 0.0 10181371
15:00+24ssw53380 0.0 10171613
18:00+21s44502 0.0 1018740
21:00+15sse11750 0.0 102011
23 april, fri
fri2300:00+14nne22810 0.0 102017
03:00+13nne22835 0.0 101911
06:00+12nne11781 0.0 101910
09:00+20ese01395 0.0 1019367
12:00+27wnw11205 0.0 10181298
15:00+29ssw31185 0.0 10161864
18:00+25wsw563364 0.0 1015341
21:00+18wsw1146100 0.0 101611
24 april, sat
sat2400:00+17ne224789 0.0 101611
03:00+17nne224620 0.0 101512
06:00+16nne22390 0.0 101411
09:00+24ne23230 0.0 1014346
12:00+31ne34145 0.0 10121487
15:00+33e33145 0.0 10101973
18:00+28ssw4524100 0.0 1010208
21:00+21nnw223692 0.0 101111
25 april, sun
sun2500:00+20ne223452 0.0 101012
03:00+19nne223572 0.0 100913
06:00+19nne223289 0.0 100816
09:00+28ne3423100 0.0 1008399
12:00+33ese3317100 0.0 10071477
15:00+32s4321100 0.0 10061414
18:00+27wsw4534100 0.0 1005148
21:00+22sse2238100 0.0 100623
26 april, mon
mon2600:00+18se1163100 0.0 100611
03:00+18n226735 0.0 100528
06:00+18wsw226445 0.0 100541
09:00+23ese2248100 0.0 1006544
12:00+28s55282 0.0 10061644
15:00+26s77370 0.0 10061304
18:00+21ssw66626 0.0 10061061
21:00+16s22920 0.0 100827